Regional Weather Roundup
Issued by NWS

Home | Current Version | Previous Version | Graphics & Text | Print | Product List | Glossary On
Versions: 1 2 3 4 5 6 7 8 9 10 11 12 13 14 15 16 17 18 19 20 21 22 23 24 25 26 27 28 29 30 31 32 33 34 35 36 37 38 39 40 41 42 43 44 45 46 47 48 49 50
801
ASUS43 KIND 202309
RWRIN

WEATHER ROUNDUP FOR INDIANA
NATIONAL WEATHER SERVICE INDIANAPOLIS IN
600 PM EST FRI JAN 20 2017

NOTE: "FAIR" INDICATES FEW OR NO CLOUDS BELOW 12,000 FEET WITH NO
SIGNIFICANT WEATHER AND/OR OBSTRUCTIONS TO VISIBILITY.

* - STATION DOES NOT REPORT WEATHER SUCH AS PRECIPITATION OR FOG.

+ - STATION NOT QUALITY CONTROLLED BY THE NATIONAL WEATHER SERVICE.
    USE DATA WITH CAUTION...ESPECIALLY DEWPOINT AND RELATIVE
    HUMIDITY OBSERVATIONS.

INZ001>003-010>013-019-020-210000-
NORTHWEST INDIANA

CITY           SKY/WX    TMP DP  RH WIND       PRES   REMARKS
GARY /AIRPORT/ CLOUDY    45  43  93 CALM      29.67R FOG
KNOX *+        CLOUDY    45  39  81 S5        29.68R
LA PORTE +     FOG       43  43 100 S3        29.68R VSB 3/4
MICHIGAN CITY+ CLOUDY    43  43 100 CALM      29.68R FOG
MONTICELLO +   CLOUDY    47  46  94 CALM      29.68R
RENSSELAER +   RAIN      48  46  93 S6        29.68R
VALPARAISO     CLOUDY    46  46 100 S6        29.67R FOG

$$

LMZ046-743>745-210000-
SOUTHERN LAKE MICHIGAN

STATION/POSITION TIME  TEMP    WIND        PRES    WAVE
                       AIR SEA DIR/SP/G            HT
                 (UTC) (F)     (DEG/KT/KT) (MB)    (FT)
BURNS HARBOR     2240   37      70/  3/  4 1005.4R
MICHIGAN CITY    2240   38      60/  2/  3   N/A

$$

INZ004-005-014>016-021>024-210000-
NORTH CENTRAL INDIANA

CITY           SKY/WX    TMP DP  RH WIND       PRES   REMARKS
ELKHART        FOG       41  41 100 E3        29.68R VSB 1/4
GOSHEN         CLOUDY    45  42  89 S5        29.68R FOG
LOGANSPORT +   CLOUDY    46  45  93 S3        29.70R
PERU/GRISSOM   CLOUDY    48  48 100 CALM      29.68R
ROCHESTER +    MOCLDY    46  46 100 S3        29.70R FOG
SOUTH BEND     FOG       42  42 100 SE3       29.68S VSB 1/2
WARSAW +       CLOUDY    45  43  93 CALM      29.69R FOG

$$

INZ006>009-017-018-025>027-210000-
NORTHEAST INDIANA

CITY           SKY/WX    TMP DP  RH WIND       PRES   REMARKS
ANGOLA *+      CLOUDY    43  41  93 CALM      29.68S VSB 1/2
AUBURN +       FOG       45  43  93 CALM      29.70R VSB 3/4
FORT WAYNE     CLOUDY    50  45  83 W8        29.71R
HUNTINGTON +   CLOUDY    48  47  95 W3        29.71R
KENDALLVILLE + FOG       44  44 100 SW3       29.69R VSB 1/4

$$

INZ028-029-035-036-043>045-051>053-210000-
WEST CENTRAL INDIANA

CITY           SKY/WX    TMP DP  RH WIND       PRES   REMARKS
CRAWFORDSVL +  CLOUDY    48  48 100 SE5       29.68S
GREENCASTLE +  CLOUDY    50  46  87 SE5       29.69R
LAFAYETTE      CLOUDY    50  48  93 CALM      29.67S
TERRE HAUTE    CLOUDY    53  48  83 SE6       29.66S

$$

INZ030>032-037>040-046>048-054>057-064-065-210000-
CENTRAL INDIANA

CITY           SKY/WX    TMP DP  RH WIND       PRES   REMARKS
CP ATTERBURY + CLOUDY    54  46  76 SE3       29.71S
COLUMBUS       CLOUDY    54  50  87 SE5       29.72R
FISHERS *+     CLOUDY    50  48  93 CALM      29.71R
FRANKFORT +    CLOUDY    52  49  87 CALM      29.70S
GREENWOOD *+   CLOUDY    54  49  83 SE3       29.71S
INDIANAPOLIS   CLOUDY    52  47  83 SE5       29.70R
-EAGLE CREEK   CLOUDY    52  47  83 SE5       29.69R
KOKOMO +       CLOUDY    49  48  97 S5        29.71R
MARION +       CLOUDY    48  48 100 CALM      29.72R
MT COMFORT *+  CLOUDY    52  46  82 S3        29.71S
SHELBYVILLE    CLOUDY    54  47  77 S5        29.71R
ZIONSVILLE +   CLOUDY    50  46  87 CALM      29.70S

$$

INZ033-034-041-042-049-050-058-059-210000-
EAST CENTRAL INDIANA

CITY           SKY/WX    TMP DP  RH WIND       PRES   REMARKS
MUNCIE         CLOUDY    54  48  80 SW5       29.71R

$$

INZ060-061-067>069-081>083-085>088-210000-
SOUTHWEST INDIANA

CITY           SKY/WX    TMP DP  RH WIND       PRES   REMARKS
EVANSVILLE     PTCLDY    60  51  72 S8        29.68R
HUNTINGBURG *+ MOCLDY    57  52  82 S7        29.69F
WASHINGTON +   MOCLDY    56  49  78 S8        29.67S

$$

INZ062-063-066-070>080-084-089>092-210000-
SOUTH CENTRAL AND SOUTHEAST INDIANA

CITY           SKY/WX    TMP DP  RH WIND       PRES   REMARKS
BLOOMINGTON    CLOUDY    54  48  80 SE5       29.69R
MADISON *+     CLOUDY    57  46  67 S6        29.75R
NORTH VERNON + CLOUDY    57  52  82 S3        29.73R
SEYMOUR +      CLOUDY    57  50  77 S6        29.71R

$$





USA.gov is the U.S. government's official web portal to all federal, state and local government web resources and services.